This demonstration page uses our WeatherBlox Daily Observations layout. Learn more.

41.55636, -103.73856

Hourly Observations for August 30, 2019

Temp ( °F °C ) Dew Point ( °F °C ) Humidity (%) Winds ( mph kmh ) Pressure ( in mb ) Visibility ( mi km ) Precip ( " mm )
12:58 am 00:58 Clear 52 11.3 47 8.1 81 81 ESE 7 11 30.12 1020 10 16.09344 0 0
1:58 am 01:58 Clear 50 10.1 46 8 87 87 SE 9 15 30.15 1021 10 16.09344 0 0
2:58 am 02:58 Clear 51 10.7 47 8.6 87 87 SSE 8 13 30.06 1018 10 16.09344 0 0
3:58 am 03:58 Mostly Cloudy 51 10.3 48 8.7 90 90 S 7 11 30.06 1018 10 16.09344 0 0
4:58 am 04:58 Cloudy 54 12.3 50 10.1 87 87 SSE 6 9 30.06 1018 10 16.09344 0 0
5:58 am 05:58 Mostly Cloudy 55 12.6 50 9.8 83 83 SSE 8 13 30.06 1018 10 16.09344 0 0
6:58 am 06:58 Mostly Cloudy 55 12.6 47 8.4 76 76 SSE 10 17 30.09 1019 10 16.09344 0 0
7:58 am 07:58 Mostly Cloudy 55 12.6 45 7.4 71 71 S 9 15 30.09 1019 10 16.09344 0 0
8:58 am 08:58 Mostly Cloudy 57 13.8 46 7.9 68 68 S 9 15 30.12 1020 10 16.09344 0 0
9:58 am 09:58 Mostly Cloudy 60 15.8 49 9.4 66 66 S 12 19 30.09 1019 10 16.09344 0 0
10:58 am 10:58 Mostly Cloudy 63 17.3 51 10.8 66 66 SSW 9 15 30.09 1019 10 16.09344 0 0
11:58 am 11:58 Mostly Cloudy 65 18.4 53 11.8 66 66 S 10 17 30.09 1019 10 16.09344 0 0
12:58 pm 12:58 Mostly Cloudy 69 20.4 56 13.3 64 64 S 14 22 30.03 1017 10 16.09344 0 0
1:58 pm 13:58 Partly Cloudy 73 22.5 57 13.8 58 58 S 15 24 30 1016 10 16.09344 0 0
2:58 pm 14:58 Sunny 74 23.1 58 14.4 58 58 S 16 26 30 1016 10 16.09344 0 0
3:58 pm 15:58 Sunny 76 24.5 57 14 52 52 S 13 20 29.97 1015 10 16.09344 0 0
4:58 pm 16:58 Sunny 76 24.5 57 14.1 52 52 SSE 14 22 29.91 1013 10 16.09344 0 0
5:58 pm 17:58 Mostly Cloudy 72 22.3 57 13.8 59 59 SE 10 17 29.97 1015 10 16.09344 0 0
6:58 pm 18:58 Mostly Cloudy 67 19.7 61 16.2 80 80 ESE 14 22 30.03 1017 10 16.09344 0.02 0.508
7:58 pm 19:58 Mostly Clear 64 17.6 60 15.4 87 87 SSE 12 19 30.03 1017 10 16.09344 0 0
8:58 pm 20:58 Mostly Clear 63 17.2 61 15.9 92 92 SSE 16 26 30.03 1017 10 16.09344 0 0
9:58 pm 21:58 Mostly Cloudy with Light Showers 64 17.7 62 16.5 93 93 NE 9 15 30.09 1019 10 16.09344 0.01 0.254
10:58 pm 22:58 Mostly Cloudy 64 17.7 61 16.3 92 92 SE 9 15 30.09 1019 10 16.09344 0 0
11:58 pm 23:58 Mostly Cloudy with Mist and Fog 62 16.8 62 16.5 98 98 SSE 12 19 30.06 1018 4 6.437376 0 0

Powered by AerisWeather